DECAYED

METEOR 2-7 DEB, 28597 (Decayed)

Orbit data source: Space-Track

METEOR 2-7 DEB, 28597 was space debris in LEO originally from a launch on Thu, 14 May 1981 UTC launched from the Plesetsk Missile And Space Complex (PKMTR). Debris objects in space refer to the collection of defunct objects orbiting the Earth. Examples of debris include non-operational satellites, rocket bodies, and fragments generated from explosions, collisions, or faulty payload assembly.

Not visible in the next 10 days
Identifier
28597, 1981-043G
Orbit
Decayed
Last TLE update
9 months ago
Origin
Manufacturer
Unknown
Mission
Decayed spacecraft
Bus & Motor
Unknown
Mass
Unknown
Launch date (UTC)
1981-05-14 (44 years ago)
Launch vehicle
Unknown
Launch site
Plesetsk Missile And Space Complex (PKMTR)
Object type
Payload
Rocket body
Debris
Shape & HBR
Unknown
Radar Cross Section
Small (<0.1 m²)

Expand to show TLE details & history

TLE from 9 months ago
0 METEOR 2-7 DEB
1 28597U 81043G   24282.80353369  .00282397  00000-0  52308-1 0  9992
2 28597  81.2497 115.3705 0026671 168.2594 191.9234 14.63261477535927
Epoch: 2024-10-08T19:17Z
TLE epoch observation values (Epoch: 2024-10-08T19:17:05.31Z)
Latitude
-0.00006°
Longitude
168.18682°
Altitude
704.066 km
Speed
7.494 km/s
True Right ascension
07h 41m 28s
True Declination
0° 00' 00"
Sunlit
Object was in daylight at epoch
Visualization orbit readout
Visualization observer readout
Orbital elements
Apogee altitude
698.59 km
Perigee altitude
660.941 km
Semi-major axis
7,057.903 km
Eccentricity
0.00267
Inclination
81.2497°
RAAN
115.3705°
Arg. of periapsis
168.2594°
True anomaly
Unknown
Mean anomaly
191.9234°
Eccentric anomaly
Unknown
Mean motion
3.66041 °/min
Orbital period
98.35 mins
BSTAR
0.052308
Loading maneuver chart data...
Loading SW <> Apogee altitude chart data...
Loading historical data...
Loading historical data...
Loading historical data...
Loading historical data...
Loading historical data...
Loading historical data...
Loading historical data...

METEOR 2-7 DEB Visibility

Observer location: undefined°, undefined°

This satellite is decayed
Span
Click to sort rows by Start time (UTC) header in descending order
Start Az.
Max El. time (UTC)
Max El. Az.
Max El.
End time (UTC)
End Az.
|